Time,TemperatureF,DewpointF,PressureIn,WindDirection,WindDirectionDegrees,WindSpeedMPH,WindSpeedGustMPH,Humidity,HourlyPrecipIn,Conditions,Clouds,dailyrainin,SoftwareType,DateUTC
2013-01-28 00:00:00,29.3,14.3,29.56,NW,313,0.0,0.0,53,0.00,,BKN,0.00,VWS V13.01,2013-01-28 05:00:00,
2013-01-28 00:03:00,29.3,14.3,29.56,NW,313,0.0,0.0,53,0.00,,BKN,0.00,VWS V13.01,2013-01-28 05:03:00,
2013-01-28 00:08:00,29.3,14.3,29.56,NW,313,0.0,0.0,53,0.00,,BKN,0.00,VWS V13.01,2013-01-28 05:08:00,
2013-01-28 00:13:00,29.3,14.7,29.56,NW,313,0.0,0.0,54,0.00,,BKN,0.00,VWS V13.01,2013-01-28 05:13:00,
2013-01-28 00:18:00,29.3,14.7,29.56,NW,313,0.0,0.0,54,0.00,,BKN,0.00,VWS V13.01,2013-01-28 05:18:00,
2013-01-28 00:23:00,29.3,14.7,29.56,NW,313,0.0,0.0,54,0.00,,BKN,0.00,VWS V13.01,2013-01-28 05:23:00,
2013-01-28 00:28:00,29.3,15.1,29.56,NW,313,0.0,0.0,55,0.00,,BKN,0.00,VWS V13.01,2013-01-28 05:28:00,
2013-01-28 00:33:00,29.5,15.3,29.56,NW,313,0.0,0.0,55,0.00,,BKN,0.00,VWS V13.01,2013-01-28 05:33:00,
2013-01-28 00:38:00,29.5,15.3,29.56,NW,313,0.0,0.0,55,0.00,,BKN,0.00,VWS V13.01,2013-01-28 05:38:00,
2013-01-28 00:43:00,29.5,15.3,29.56,NW,313,0.0,0.0,55,0.00,,BKN,0.00,VWS V13.01,2013-01-28 05:43:00,
2013-01-28 00:48:00,29.7,15.5,29.53,NW,313,0.0,0.0,55,0.00,,BKN,0.00,VWS V13.01,2013-01-28 05:48:00,
2013-01-28 00:53:00,29.7,15.5,29.53,NW,313,0.0,0.0,55,0.00,,BKN,0.00,VWS V13.01,2013-01-28 05:53:00,
2013-01-28 00:58:00,29.7,15.5,29.53,NW,313,0.0,0.0,55,0.00,,BKN,0.00,VWS V13.01,2013-01-28 05:58:00,
2013-01-28 01:03:00,29.7,15.5,29.53,NW,313,0.0,0.0,55,0.00,,BKN,0.00,VWS V13.01,2013-01-28 06:03:00,
2013-01-28 01:08:00,29.7,15.5,29.53,NW,313,0.0,0.0,55,0.00,,BKN,0.00,VWS V13.01,2013-01-28 06:08:00,
2013-01-28 01:13:00,29.7,15.5,29.53,NW,313,0.0,0.0,55,0.00,,BKN,0.00,VWS V13.01,2013-01-28 06:13:00,
2013-01-28 01:18:00,29.8,15.7,29.53,NW,313,0.0,0.0,55,0.00,,BKN,0.00,VWS V13.01,2013-01-28 06:18:00,
2013-01-28 01:23:00,29.8,15.7,29.53,NW,313,0.0,0.0,55,0.00,,BKN,0.00,VWS V13.01,2013-01-28 06:23:00,
2013-01-28 01:28:00,29.8,15.7,29.53,NW,313,0.0,0.0,55,0.00,,BKN,0.00,VWS V13.01,2013-01-28 06:28:00,
2013-01-28 01:33:00,30.0,15.8,29.53,NW,313,0.0,0.0,55,0.00,,BKN,0.00,VWS V13.01,2013-01-28 06:33:00,
2013-01-28 01:38:00,30.0,15.8,29.53,NW,313,0.0,0.0,55,0.00,,BKN,0.00,VWS V13.01,2013-01-28 06:38:00,
2013-01-28 01:43:00,30.0,15.8,29.53,NW,313,0.0,0.0,55,0.00,,BKN,0.00,VWS V13.01,2013-01-28 06:43:00,
2013-01-28 01:48:00,30.2,16.0,29.53,NW,313,0.0,0.0,55,0.00,,BKN,0.00,VWS V13.01,2013-01-28 06:48:00,
2013-01-28 01:53:00,30.2,16.0,29.53,NW,313,0.0,0.0,55,0.00,,BKN,0.00,VWS V13.01,2013-01-28 06:53:00,
2013-01-28 01:58:00,30.2,16.0,29.53,NW,313,0.0,0.0,55,0.00,,BKN,0.00,VWS V13.01,2013-01-28 06:58:00,
2013-01-28 02:03:00,30.4,16.2,29.53,NW,313,0.0,0.0,55,0.00,,BKN,0.00,VWS V13.01,2013-01-28 07:03:00,
2013-01-28 02:08:00,30.4,16.2,29.53,NW,313,0.0,0.0,55,0.00,,BKN,0.00,VWS V13.01,2013-01-28 07:08:00,
2013-01-28 02:13:00,30.4,16.2,29.53,NW,313,0.0,0.0,55,0.00,,BKN,0.00,VWS V13.01,2013-01-28 07:13:00,
2013-01-28 02:18:00,30.4,16.2,29.53,NW,313,0.0,0.0,55,0.00,,BKN,0.00,VWS V13.01,2013-01-28 07:18:00,
2013-01-28 02:23:00,30.4,16.2,29.53,NW,313,0.0,0.0,55,0.00,,BKN,0.00,VWS V13.01,2013-01-28 07:23:00,
2013-01-28 02:28:00,30.4,16.2,29.53,NW,313,0.0,0.0,55,0.00,,BKN,0.00,VWS V13.01,2013-01-28 07:28:00,
2013-01-28 02:33:00,30.4,16.2,29.53,NW,313,0.0,0.0,55,0.00,,BKN,0.00,VWS V13.01,2013-01-28 07:33:00,
2013-01-28 02:38:00,30.4,16.2,29.53,NW,313,0.0,0.0,55,0.00,,BKN,0.00,VWS V13.01,2013-01-28 07:38:00,
2013-01-28 02:43:00,30.4,16.2,29.53,NW,313,0.0,0.0,55,0.00,,BKN,0.00,VWS V13.01,2013-01-28 07:43:00,
2013-01-28 02:48:00,30.4,16.6,29.53,NW,313,0.0,0.0,56,0.00,,BKN,0.00,VWS V13.01,2013-01-28 07:48:00,
2013-01-28 02:53:00,30.4,16.6,29.53,NW,313,0.0,0.0,56,0.00,,BKN,0.00,VWS V13.01,2013-01-28 07:53:00,
2013-01-28 02:58:00,30.4,16.6,29.53,NW,313,0.0,0.0,56,0.00,,BKN,0.00,VWS V13.01,2013-01-28 07:58:00,
2013-01-28 03:03:00,30.4,16.6,29.50,NW,313,0.0,0.0,56,0.00,,BKN,0.00,VWS V13.01,2013-01-28 08:03:00,
2013-01-28 03:08:00,30.2,16.8,29.50,NW,313,0.0,0.0,57,0.00,,BKN,0.00,VWS V13.01,2013-01-28 08:08:00,
2013-01-28 03:13:00,30.2,16.8,29.50,NW,313,0.0,0.0,57,0.00,,BKN,0.00,VWS V13.01,2013-01-28 08:13:00,
2013-01-28 03:18:00,30.2,17.2,29.50,NW,313,0.0,0.0,58,0.00,,BKN,0.00,VWS V13.01,2013-01-28 08:18:00,
2013-01-28 03:23:00,30.0,17.4,29.50,NW,313,0.0,0.0,59,0.00,,BKN,0.00,VWS V13.01,2013-01-28 08:23:00,
2013-01-28 03:28:00,30.0,17.4,29.50,NW,313,0.0,0.0,59,0.00,,BKN,0.00,VWS V13.01,2013-01-28 08:28:00,
2013-01-28 03:33:00,29.8,17.3,29.50,NW,313,0.0,0.0,59,0.00,,BKN,0.00,VWS V13.01,2013-01-28 08:33:00,
2013-01-28 03:38:00,29.8,17.7,29.50,NW,313,0.0,0.0,60,0.00,,BKN,0.00,VWS V13.01,2013-01-28 08:38:00,
2013-01-28 03:43:00,29.8,17.7,29.50,NW,313,0.0,0.0,60,0.00,,BKN,0.00,VWS V13.01,2013-01-28 08:43:00,
2013-01-28 03:48:00,29.8,17.7,29.50,NW,313,0.0,0.0,60,0.00,,BKN,0.00,VWS V13.01,2013-01-28 08:48:00,
2013-01-28 03:52:00,29.8,18.0,29.50,NW,313,0.0,0.0,61,0.00,,BKN,0.00,VWS V13.01,2013-01-28 08:52:00,
2013-01-28 03:58:00,29.8,18.4,29.50,NW,313,0.0,0.0,62,0.00,,BKN,0.00,VWS V13.01,2013-01-28 08:58:00,
2013-01-28 04:03:00,29.8,18.4,29.50,NW,313,0.0,0.0,62,0.00,,BKN,0.00,VWS V13.01,2013-01-28 09:03:00,
2013-01-28 04:07:00,29.8,18.4,29.50,NW,313,0.0,0.0,62,0.00,,BKN,0.00,VWS V13.01,2013-01-28 09:07:00,
2013-01-28 04:13:00,29.8,18.4,29.50,NW,313,0.0,0.0,62,0.00,,BKN,0.00,VWS V13.01,2013-01-28 09:13:00,
2013-01-28 04:18:00,29.8,18.4,29.50,NW,313,0.0,0.0,62,0.00,,BKN,0.00,VWS V13.01,2013-01-28 09:18:00,
2013-01-28 04:23:00,29.8,18.8,29.50,NW,313,0.0,0.0,63,0.00,,BKN,0.00,VWS V13.01,2013-01-28 09:23:00,
2013-01-28 04:28:00,30.0,19.7,29.50,NW,313,0.0,0.0,65,0.00,,BKN,0.00,VWS V13.01,2013-01-28 09:28:00,
2013-01-28 04:33:00,30.0,20.4,29.50,NW,313,0.0,0.0,67,0.00,,BKN,0.00,VWS V13.01,2013-01-28 09:33:00,
2013-01-28 04:38:00,30.0,21.1,29.50,NW,313,0.0,0.0,69,0.00,,BKN,0.00,VWS V13.01,2013-01-28 09:38:00,
2013-01-28 04:42:00,30.0,21.8,29.50,NW,313,0.0,0.0,71,0.00,,BKN,0.00,VWS V13.01,2013-01-28 09:42:00,
2013-01-28 04:48:00,30.0,21.8,29.50,NW,313,0.0,0.0,71,0.00,,BKN,0.00,VWS V13.01,2013-01-28 09:48:00,
2013-01-28 04:53:00,30.2,22.3,29.50,NW,313,0.0,0.0,72,0.00,,BKN,0.00,VWS V13.01,2013-01-28 09:53:00,
2013-01-28 04:58:00,30.2,22.6,29.50,NW,313,0.0,0.0,73,0.00,,BKN,0.00,VWS V13.01,2013-01-28 09:58:00,
2013-01-28 05:03:00,30.4,23.1,29.50,NW,313,0.0,0.0,74,0.00,,BKN,0.00,VWS V13.01,2013-01-28 10:03:00,
2013-01-28 05:07:00,30.4,23.7,29.50,NW,313,0.0,0.0,76,0.00,,BKN,0.00,VWS V13.01,2013-01-28 10:07:00,
2013-01-28 05:12:00,30.4,24.0,29.50,NW,313,0.0,0.0,77,0.00,,BKN,0.00,VWS V13.01,2013-01-28 10:12:00,
2013-01-28 05:17:00,30.4,24.4,29.50,NW,313,0.0,0.0,78,0.00,,BKN,0.00,VWS V13.01,2013-01-28 10:17:00,
2013-01-28 05:22:00,30.4,24.4,29.50,NW,313,0.0,0.0,78,0.00,,BKN,0.00,VWS V13.01,2013-01-28 10:22:00,
2013-01-28 05:27:00,30.4,24.7,29.50,NW,313,0.0,0.0,79,0.00,,BKN,0.00,VWS V13.01,2013-01-28 10:27:00,
2013-01-28 05:32:00,30.4,24.7,29.44,NW,313,0.0,0.0,79,0.00,,BKN,0.00,VWS V13.01,2013-01-28 10:32:00,
2013-01-28 05:37:00,30.6,25.1,29.44,NW,313,0.0,0.0,80,0.00,,BKN,0.00,VWS V13.01,2013-01-28 10:37:00,
2013-01-28 05:42:00,30.4,25.0,29.44,NW,313,0.0,0.0,80,0.00,,BKN,0.00,VWS V13.01,2013-01-28 10:42:00,
2013-01-28 05:47:00,30.6,25.4,29.44,NW,313,0.0,0.0,81,0.00,,BKN,0.00,VWS V13.01,2013-01-28 10:47:00,
2013-01-28 05:52:00,30.6,25.4,29.44,NW,313,0.0,0.0,81,0.00,,BKN,0.00,VWS V13.01,2013-01-28 10:52:00,
2013-01-28 05:57:00,30.7,25.6,29.44,NW,313,0.0,0.0,81,0.00,,BKN,0.00,VWS V13.01,2013-01-28 10:57:00,
2013-01-28 06:02:00,30.9,25.8,29.44,NW,313,0.0,0.0,81,0.00,,BKN,0.00,VWS V13.01,2013-01-28 11:02:00,
2013-01-28 06:07:00,30.9,25.8,29.47,NW,313,0.0,0.0,81,0.00,,BKN,0.00,VWS V13.01,2013-01-28 11:07:00,
2013-01-28 06:12:00,30.9,26.1,29.47,NW,313,0.0,0.0,82,0.00,,BKN,0.00,VWS V13.01,2013-01-28 11:12:00,
2013-01-28 06:17:00,31.3,26.4,29.44,NW,313,0.0,0.0,82,0.00,,BKN,0.00,VWS V13.01,2013-01-28 11:17:00,
2013-01-28 06:22:00,31.3,26.7,29.44,NW,313,0.0,0.0,83,0.00,,BKN,0.00,VWS V13.01,2013-01-28 11:22:00,
2013-01-28 06:27:00,31.3,26.7,29.44,NW,313,0.0,0.0,83,0.00,,BKN,0.00,VWS V13.01,2013-01-28 11:27:00,
2013-01-28 06:32:00,31.5,27.2,29.44,NW,313,0.0,0.0,84,0.00,,BKN,0.00,VWS V13.01,2013-01-28 11:32:00,
2013-01-28 06:37:00,31.5,27.2,29.44,NW,313,0.0,0.0,84,0.00,,BKN,0.00,VWS V13.01,2013-01-28 11:37:00,
2013-01-28 06:42:00,31.5,27.2,29.44,NW,313,0.0,0.0,84,0.00,,BKN,0.00,VWS V13.01,2013-01-28 11:42:00,
2013-01-28 06:47:00,31.6,27.4,29.44,NW,313,0.0,0.0,84,0.00,,BKN,0.00,VWS V13.01,2013-01-28 11:47:00,
2013-01-28 06:52:00,31.6,27.4,29.44,NW,313,0.0,0.0,84,0.00,,BKN,0.00,VWS V13.01,2013-01-28 11:52:00,
2013-01-28 06:57:00,31.6,27.4,29.44,NW,313,0.0,0.0,84,0.00,,BKN,0.00,VWS V13.01,2013-01-28 11:57:00,
2013-01-28 07:02:00,31.8,27.5,29.44,NW,313,0.0,0.0,84,0.00,,BKN,0.00,VWS V13.01,2013-01-28 12:02:00,
2013-01-28 07:07:00,31.8,27.8,29.44,NW,313,0.0,0.0,85,0.00,,BKN,0.00,VWS V13.01,2013-01-28 12:07:00,
2013-01-28 07:12:00,31.8,27.8,29.44,NW,313,0.0,0.0,85,0.00,,BKN,0.00,VWS V13.01,2013-01-28 12:12:00,
2013-01-28 07:17:00,31.8,27.5,29.44,NW,313,0.0,0.0,84,0.00,,BKN,0.00,VWS V13.01,2013-01-28 12:17:00,
2013-01-28 07:22:00,31.8,27.5,29.44,NW,313,0.0,0.0,84,0.00,,BKN,0.00,VWS V13.01,2013-01-28 12:22:00,
2013-01-28 07:27:00,31.8,27.5,29.44,NW,313,0.0,0.0,84,0.00,,BKN,0.00,VWS V13.01,2013-01-28 12:27:00,
2013-01-28 07:32:00,31.8,27.5,29.44,NW,313,0.0,0.0,84,0.00,,BKN,0.00,VWS V13.01,2013-01-28 12:32:00,
2013-01-28 07:37:00,31.8,27.5,29.44,NW,313,0.0,0.0,84,0.00,,BKN,0.00,VWS V13.01,2013-01-28 12:37:00,
2013-01-28 07:42:00,32.0,28.0,29.44,NW,313,0.0,0.0,85,0.00,,BKN,0.00,VWS V13.01,2013-01-28 12:42:00,
2013-01-28 07:47:00,32.0,28.0,29.44,NW,313,0.0,0.0,85,0.00,,BKN,0.00,VWS V13.01,2013-01-28 12:47:00,
2013-01-28 07:52:00,32.0,28.0,29.44,NW,313,0.0,0.0,85,0.00,,BKN,0.00,VWS V13.01,2013-01-28 12:52:00,
2013-01-28 07:57:00,32.0,28.0,29.44,NW,313,0.0,0.0,85,0.00,,BKN,0.00,VWS V13.01,2013-01-28 12:57:00,
2013-01-28 08:02:00,32.0,28.0,29.44,SE,146,0.0,0.0,85,0.00,,BKN,0.00,VWS V13.01,2013-01-28 13:02:00,
2013-01-28 08:07:00,32.0,28.0,29.44,SE,146,0.0,0.0,85,0.00,,BKN,0.00,VWS V13.01,2013-01-28 13:07:00,
2013-01-28 08:12:00,32.0,28.0,29.44,SE,146,0.0,0.0,85,0.00,,BKN,0.00,VWS V13.01,2013-01-28 13:12:00,
2013-01-28 08:17:00,32.2,28.2,29.44,SE,146,0.0,0.0,85,0.00,,BKN,0.00,VWS V13.01,2013-01-28 13:17:00,
2013-01-28 08:22:00,32.2,28.2,29.44,SE,146,0.0,0.0,85,0.00,,BKN,0.00,VWS V13.01,2013-01-28 13:22:00,
2013-01-28 08:27:00,32.2,28.2,29.44,SE,146,0.0,0.0,85,0.00,,BKN,0.00,VWS V13.01,2013-01-28 13:27:00,
2013-01-28 08:32:00,32.2,28.2,29.44,SE,146,3.6,3.6,85,0.00,,BKN,0.00,VWS V13.01,2013-01-28 13:32:00,
2013-01-28 08:37:00,32.4,28.6,29.44,SE,146,0.0,3.6,86,0.00,,BKN,0.00,VWS V13.01,2013-01-28 13:37:00,
2013-01-28 08:42:00,32.5,28.8,29.44,SE,146,0.0,2.7,86,0.00,,BKN,0.00,VWS V13.01,2013-01-28 13:42:00,
2013-01-28 08:47:00,32.4,28.6,29.44,SE,146,0.0,0.0,86,0.00,,BKN,0.00,VWS V13.01,2013-01-28 13:47:00,
2013-01-28 08:52:00,32.4,28.6,29.44,SE,146,0.0,0.0,86,0.00,,BKN,0.00,VWS V13.01,2013-01-28 13:52:00,
2013-01-28 08:57:00,32.4,28.6,29.44,SE,146,0.0,0.0,86,0.00,,BKN,0.00,VWS V13.01,2013-01-28 13:57:00,
2013-01-28 09:02:00,32.5,29.1,29.44,SW,215,5.4,5.8,87,0.00,,BKN,0.00,VWS V13.01,2013-01-28 14:02:00,
2013-01-28 09:07:00,32.5,29.1,29.44,WSW,239,3.6,4.5,87,0.00,,BKN,0.00,VWS V13.01,2013-01-28 14:07:00,
2013-01-28 09:12:00,32.7,29.6,29.44,SW,214,4.0,4.9,88,0.00,,BKN,0.00,VWS V13.01,2013-01-28 14:12:00,
2013-01-28 09:17:00,32.9,29.7,29.41,SSW,209,3.1,4.5,88,0.00,,BKN,0.00,VWS V13.01,2013-01-28 14:17:00,
2013-01-28 09:22:00,32.9,29.7,29.41,SW,216,4.0,4.0,88,0.00,,BKN,0.00,VWS V13.01,2013-01-28 14:22:00,
2013-01-28 09:27:00,33.1,29.9,29.41,SSW,210,5.4,5.8,88,0.00,,BKN,0.00,VWS V13.01,2013-01-28 14:27:00,
2013-01-28 09:32:00,33.1,29.9,29.41,SW,218,4.5,4.5,88,0.00,,BKN,0.00,VWS V13.01,2013-01-28 14:32:00,
2013-01-28 09:37:00,33.3,30.4,29.41,SW,219,3.6,5.8,89,0.00,,BKN,0.00,VWS V13.01,2013-01-28 14:37:00,
2013-01-28 09:42:00,33.3,30.4,29.41,SW,219,2.7,2.7,89,0.00,,BKN,0.00,VWS V13.01,2013-01-28 14:42:00,
2013-01-28 09:47:00,33.4,30.5,29.41,SW,214,4.5,4.9,89,0.00,,BKN,0.00,VWS V13.01,2013-01-28 14:47:00,
2013-01-28 09:52:00,33.6,30.7,29.41,SSW,196,2.7,3.1,89,0.00,,BKN,0.00,VWS V13.01,2013-01-28 14:52:00,
2013-01-28 09:57:00,33.6,30.7,29.41,SSW,208,5.4,5.4,89,0.00,,BKN,0.00,VWS V13.01,2013-01-28 14:57:00,
2013-01-28 10:02:00,33.6,30.7,29.38,SSW,209,3.1,4.0,89,0.00,,BKN,0.00,VWS V13.01,2013-01-28 15:02:00,
2013-01-28 10:07:00,33.8,30.9,29.38,SSW,208,4.5,4.9,89,0.00,,BKN,0.00,VWS V13.01,2013-01-28 15:07:00,
2013-01-28 10:12:00,34.0,31.1,29.38,SSW,208,4.5,5.4,89,0.00,,BKN,0.00,VWS V13.01,2013-01-28 15:12:00,
2013-01-28 10:17:00,34.2,31.3,29.38,SSW,201,5.4,6.3,89,0.00,,BKN,0.00,VWS V13.01,2013-01-28 15:17:00,
2013-01-28 10:22:00,34.5,31.6,29.38,SSW,211,4.0,4.0,89,0.00,,BKN,0.00,VWS V13.01,2013-01-28 15:22:00,
2013-01-28 10:27:00,35.2,32.6,29.38,ESE,117,2.7,4.0,90,0.00,,BKN,0.00,VWS V13.01,2013-01-28 15:27:00,
2013-01-28 10:32:00,35.4,32.8,29.38,SSE,155,5.4,5.8,90,0.00,,BKN,0.00,VWS V13.01,2013-01-28 15:32:00,
2013-01-28 10:37:00,36.0,33.3,29.38,SE,141,6.7,8.7,90,0.00,,BKN,0.00,VWS V13.01,2013-01-28 15:37:00,
2013-01-28 10:42:00,36.1,33.5,29.38,SW,214,6.7,6.7,90,0.00,,BKN,0.00,VWS V13.01,2013-01-28 15:42:00,
2013-01-28 10:47:00,36.3,33.4,29.38,South,191,3.1,4.9,89,0.00,,BKN,0.00,VWS V13.01,2013-01-28 15:47:00,
2013-01-28 10:52:00,36.7,33.5,29.38,South,181,4.9,8.7,88,0.00,,BKN,0.00,VWS V13.01,2013-01-28 15:52:00,
2013-01-28 10:57:00,36.9,33.7,29.38,SSW,202,3.1,4.9,88,0.00,,BKN,0.00,VWS V13.01,2013-01-28 15:57:00,
2013-01-28 11:02:00,37.4,34.2,29.38,SSE,150,6.3,6.3,88,0.00,,BKN,0.00,VWS V13.01,2013-01-28 16:02:00,
2013-01-28 11:07:00,37.6,34.3,29.38,SSW,208,10.1,10.1,88,0.00,,BKN,0.00,VWS V13.01,2013-01-28 16:07:00,
2013-01-28 11:12:00,37.6,33.8,29.38,SSW,196,10.5,11.6,86,0.00,,BKN,0.00,VWS V13.01,2013-01-28 16:12:00,
2013-01-28 11:17:00,37.8,33.1,29.38,SW,215,8.7,11.2,83,0.00,,BKN,0.00,VWS V13.01,2013-01-28 16:17:00,
2013-01-28 11:22:00,37.9,33.0,29.38,SW,224,4.9,5.8,82,0.00,,BKN,0.00,VWS V13.01,2013-01-28 16:22:00,
2013-01-28 11:27:00,37.9,32.3,29.38,SSW,196,5.4,6.7,80,0.00,,BKN,0.00,VWS V13.01,2013-01-28 16:27:00,
2013-01-28 11:32:00,37.9,32.0,29.35,SW,222,5.8,5.8,79,0.00,,BKN,0.00,VWS V13.01,2013-01-28 16:32:00,
2013-01-28 11:37:00,37.9,32.0,29.35,SSW,213,5.4,5.8,79,0.00,,BKN,0.00,VWS V13.01,2013-01-28 16:37:00,
2013-01-28 11:42:00,37.9,32.0,29.35,SW,222,5.8,6.9,79,0.00,,BKN,0.00,VWS V13.01,2013-01-28 16:42:00,
2013-01-28 11:47:00,37.9,32.0,29.35,SW,235,4.9,4.9,79,0.00,,BKN,0.00,VWS V13.01,2013-01-28 16:47:00,
2013-01-28 11:52:00,37.9,32.0,29.35,SW,235,7.4,8.7,79,0.00,,BKN,0.00,VWS V13.01,2013-01-28 16:52:00,
2013-01-28 11:57:00,37.9,32.0,29.35,SSW,201,11.0,11.0,79,0.00,,BKN,0.00,VWS V13.01,2013-01-28 16:57:00,
2013-01-28 12:02:00,37.9,31.7,29.32,SSW,201,5.8,6.9,78,0.00,,BKN,0.00,VWS V13.01,2013-01-28 17:02:00,
2013-01-28 12:07:00,37.8,31.5,29.32,SW,218,7.4,10.5,78,0.00,,BKN,0.00,VWS V13.01,2013-01-28 17:07:00,
2013-01-28 12:12:00,37.9,31.7,29.32,SW,224,7.8,8.3,78,0.00,,BKN,0.00,VWS V13.01,2013-01-28 17:12:00,
2013-01-28 12:17:00,38.3,32.4,29.32,SW,221,10.5,10.5,79,0.00,,BKN,0.00,VWS V13.01,2013-01-28 17:17:00,
2013-01-28 12:22:00,38.5,32.2,29.32,SW,228,8.7,10.1,78,0.00,,BKN,0.00,VWS V13.01,2013-01-28 17:22:00,
2013-01-28 12:27:00,38.5,31.9,29.32,WSW,238,5.4,7.4,77,0.00,,BKN,0.00,VWS V13.01,2013-01-28 17:27:00,
2013-01-28 12:32:00,38.5,31.6,29.29,WSW,241,6.7,9.2,76,0.00,,BKN,0.00,VWS V13.01,2013-01-28 17:32:00,
2013-01-28 12:37:00,39.0,32.4,29.29,SSE,165,5.4,6.7,77,0.00,,BKN,0.00,VWS V13.01,2013-01-28 17:37:00,
2013-01-28 12:42:00,40.1,33.5,29.29,SSW,200,8.3,11.2,77,0.00,,BKN,0.00,VWS V13.01,2013-01-28 17:42:00,
2013-01-28 12:47:00,40.5,32.8,29.29,SW,236,10.5,11.6,74,0.00,,BKN,0.00,VWS V13.01,2013-01-28 17:47:00,
2013-01-28 12:52:00,40.3,32.0,29.29,SSW,207,7.4,8.7,72,0.00,,BKN,0.00,VWS V13.01,2013-01-28 17:52:00,
2013-01-28 12:57:00,40.3,32.3,29.29,WSW,238,7.8,8.7,73,0.00,,BKN,0.00,VWS V13.01,2013-01-28 17:57:00,
2013-01-28 13:02:00,40.5,32.5,29.29,SW,228,8.3,13.9,73,0.00,,BKN,0.00,VWS V13.01,2013-01-28 18:02:00,
2013-01-28 13:07:00,40.6,33.0,29.29,WSW,258,6.3,6.9,74,0.00,,BKN,0.00,VWS V13.01,2013-01-28 18:07:00,
2013-01-28 13:12:00,41.5,33.9,29.29,SSW,205,9.6,9.6,74,0.00,,BKN,0.00,VWS V13.01,2013-01-28 18:12:00,
2013-01-28 13:17:00,42.3,34.2,29.26,SW,226,12.5,12.5,73,0.00,,BKN,0.00,VWS V13.01,2013-01-28 18:17:00,
2013-01-28 13:22:00,42.8,33.7,29.26,WSW,245,9.2,11.0,70,0.00,,BKN,0.00,VWS V13.01,2013-01-28 18:22:00,
2013-01-28 13:27:00,43.3,33.9,29.26,SSW,203,11.0,13.0,69,0.00,,BKN,0.00,VWS V13.01,2013-01-28 18:27:00,
2013-01-28 13:32:00,43.7,33.8,29.26,SSW,206,6.9,7.8,68,0.00,,BKN,0.00,VWS V13.01,2013-01-28 18:32:00,
2013-01-28 13:37:00,43.5,33.3,29.26,SSW,213,7.8,7.8,67,0.00,,BKN,0.00,VWS V13.01,2013-01-28 18:37:00,
2013-01-28 13:42:00,43.5,33.3,29.26,SSW,201,10.1,11.0,67,0.00,,BKN,0.00,VWS V13.01,2013-01-28 18:42:00,
2013-01-28 13:47:00,43.7,33.8,29.23,SSW,209,6.9,7.8,68,0.00,,BKN,0.00,VWS V13.01,2013-01-28 18:47:00,
2013-01-28 13:52:00,44.2,34.0,29.23,SW,227,10.1,11.6,67,0.00,,BKN,0.00,VWS V13.01,2013-01-28 18:52:00,
2013-01-28 13:57:00,45.0,34.7,29.23,SW,215,9.2,9.6,67,0.00,,BKN,0.00,VWS V13.01,2013-01-28 18:57:00,
2013-01-28 14:02:00,45.0,33.5,29.23,SW,215,10.5,10.5,64,0.00,,BKN,0.00,VWS V13.01,2013-01-28 19:02:00,
2013-01-28 14:07:00,45.5,34.0,29.23,SW,219,9.6,9.6,64,0.00,,BKN,0.00,VWS V13.01,2013-01-28 19:07:00,
2013-01-28 14:12:00,45.5,33.2,29.23,SW,221,8.3,8.3,62,0.00,,BKN,0.00,VWS V13.01,2013-01-28 19:12:00,
2013-01-28 14:17:00,45.3,33.5,29.23,SSW,207,16.3,16.3,63,0.00,,BKN,0.00,VWS V13.01,2013-01-28 19:17:00,
2013-01-28 14:22:00,45.0,33.1,29.23,SSW,211,8.3,10.5,63,0.00,,BKN,0.00,VWS V13.01,2013-01-28 19:22:00,
2013-01-28 14:27:00,45.0,33.1,29.23,SSW,211,6.3,7.8,63,0.00,,BKN,0.00,VWS V13.01,2013-01-28 19:27:00,
2013-01-28 14:31:00,45.0,33.5,29.23,SW,224,6.3,10.1,64,0.00,,BKN,0.00,VWS V13.01,2013-01-28 19:31:00,
2013-01-28 14:36:00,45.1,33.7,29.23,South,179,6.3,7.4,64,0.00,,BKN,0.00,VWS V13.01,2013-01-28 19:36:00,
2013-01-28 14:41:00,45.3,33.9,29.23,SSW,207,6.9,11.0,64,0.00,,BKN,0.00,VWS V13.01,2013-01-28 19:41:00,
2013-01-28 14:46:00,45.3,33.9,29.23,SSW,204,8.3,10.5,64,0.00,,BKN,0.00,VWS V13.01,2013-01-28 19:46:00,
2013-01-28 14:51:00,45.3,33.9,29.23,SSW,203,7.8,11.2,64,0.00,,BKN,0.00,VWS V13.01,2013-01-28 19:51:00,
2013-01-28 14:56:00,45.1,33.7,29.23,SSW,213,5.4,6.3,64,0.00,,BKN,0.00,VWS V13.01,2013-01-28 19:56:00,
2013-01-28 15:01:00,45.1,33.7,29.21,SSW,204,6.9,7.8,64,0.00,,BKN,0.00,VWS V13.01,2013-01-28 20:01:00,
2013-01-28 15:06:00,45.1,33.7,29.21,SSW,205,10.1,10.1,64,0.00,,BKN,0.00,VWS V13.01,2013-01-28 20:06:00,
2013-01-28 15:11:00,44.8,33.8,29.21,SW,229,9.2,10.5,65,0.00,,BKN,0.00,VWS V13.01,2013-01-28 20:11:00,
2013-01-28 15:16:00,44.6,34.0,29.21,SSW,203,9.6,9.6,66,0.00,,BKN,0.00,VWS V13.01,2013-01-28 20:16:00,
2013-01-28 15:21:00,44.6,34.0,29.21,SSW,203,5.8,8.7,66,0.00,,BKN,0.00,VWS V13.01,2013-01-28 20:21:00,
2013-01-28 15:26:00,44.8,34.1,29.21,SW,216,6.7,8.3,66,0.00,,BKN,0.00,VWS V13.01,2013-01-28 20:26:00,
2013-01-28 15:31:00,45.0,34.3,29.21,SW,217,11.2,11.2,66,0.00,,BKN,0.00,VWS V13.01,2013-01-28 20:31:00,
2013-01-28 15:36:00,45.1,34.5,29.21,SSW,192,5.8,10.1,66,0.00,,BKN,0.00,VWS V13.01,2013-01-28 20:36:00,
2013-01-28 15:41:00,45.3,34.3,29.21,SSW,200,6.9,10.5,65,0.00,,BKN,0.00,VWS V13.01,2013-01-28 20:41:00,
2013-01-28 15:46:00,45.3,34.3,29.21,SW,227,9.2,10.5,65,0.00,,BKN,0.00,VWS V13.01,2013-01-28 20:46:00,
2013-01-28 15:51:00,45.3,34.3,29.21,SW,219,6.7,8.3,65,0.00,,BKN,0.00,VWS V13.01,2013-01-28 20:51:00,
2013-01-28 15:56:00,45.5,34.4,29.21,SSW,207,7.8,10.5,65,0.00,,BKN,0.00,VWS V13.01,2013-01-28 20:56:00,
2013-01-28 16:01:00,45.9,34.8,29.21,SW,214,4.9,6.7,65,0.00,,BKN,0.00,VWS V13.01,2013-01-28 21:01:00,
2013-01-28 16:06:00,46.0,35.0,29.21,SW,228,6.7,8.7,65,0.00,,BKN,0.00,VWS V13.01,2013-01-28 21:06:00,
2013-01-28 16:11:00,46.2,34.7,29.21,SW,222,5.4,5.8,64,0.00,,BKN,0.00,VWS V13.01,2013-01-28 21:11:00,
2013-01-28 16:16:00,46.2,34.7,29.21,SSW,197,7.4,7.8,64,0.00,,BKN,0.00,VWS V13.01,2013-01-28 21:16:00,
2013-01-28 16:21:00,46.4,35.3,29.21,SSW,205,6.9,8.3,65,0.00,,BKN,0.00,VWS V13.01,2013-01-28 21:21:00,
2013-01-28 16:26:00,46.6,35.5,29.21,SSW,208,7.4,8.3,65,0.00,,BKN,0.00,VWS V13.01,2013-01-28 21:26:00,
2013-01-28 16:31:00,46.8,35.6,29.21,SSW,207,4.9,5.4,65,0.00,,BKN,0.00,VWS V13.01,2013-01-28 21:31:00,
2013-01-28 16:36:00,47.3,36.2,29.21,SSW,193,6.7,7.8,65,0.00,,BKN,0.00,VWS V13.01,2013-01-28 21:36:00,
2013-01-28 16:41:00,47.5,35.5,29.21,SSW,201,6.7,7.8,63,0.00,,BKN,0.00,VWS V13.01,2013-01-28 21:41:00,
2013-01-28 16:46:00,47.7,35.7,29.21,SSW,213,5.8,5.8,63,0.00,,BKN,0.00,VWS V13.01,2013-01-28 21:46:00,
2013-01-28 16:51:00,47.8,35.5,29.21,SW,227,6.3,6.3,62,0.00,,BKN,0.00,VWS V13.01,2013-01-28 21:51:00,
2013-01-28 16:56:00,47.8,35.5,29.21,SW,227,6.3,6.3,62,0.00,,BKN,0.00,VWS V13.01,2013-01-28 21:56:00,
2013-01-28 17:01:00,48.0,35.6,29.21,SW,227,6.3,6.3,62,0.00,,BKN,0.00,VWS V13.01,2013-01-28 22:01:00,
2013-01-28 17:06:00,47.8,35.5,29.21,SW,227,6.3,6.3,62,0.00,,BKN,0.00,VWS V13.01,2013-01-28 22:06:00,
2013-01-28 17:11:00,48.0,35.6,29.21,SW,227,6.3,6.3,62,0.00,,BKN,0.00,VWS V13.01,2013-01-28 22:11:00,
2013-01-28 17:16:00,48.2,35.8,29.21,SW,227,6.3,6.3,62,0.00,,BKN,0.00,VWS V13.01,2013-01-28 22:16:00,
2013-01-28 17:21:00,48.4,36.0,29.21,SW,227,6.3,6.3,62,0.00,,BKN,0.00,VWS V13.01,2013-01-28 22:21:00,
2013-01-28 17:26:00,48.6,36.2,29.21,SW,227,6.3,6.3,62,0.00,,BKN,0.00,VWS V13.01,2013-01-28 22:26:00,
2013-01-28 17:31:00,48.7,36.3,29.21,SW,227,6.3,6.3,62,0.00,,BKN,0.00,VWS V13.01,2013-01-28 22:31:00,
2013-01-28 17:36:00,48.9,36.5,29.21,SW,227,6.3,6.3,62,0.00,,BKN,0.00,VWS V13.01,2013-01-28 22:36:00,
2013-01-28 17:41:00,49.1,36.2,29.21,SW,227,6.3,6.3,61,0.00,,BKN,0.00,VWS V13.01,2013-01-28 22:41:00,
2013-01-28 17:46:00,49.3,36.4,29.21,SW,227,6.3,6.3,61,0.00,,BKN,0.00,VWS V13.01,2013-01-28 22:46:00,
2013-01-28 17:51:00,49.3,36.4,29.21,SW,227,6.3,6.3,61,0.00,,BKN,0.00,VWS V13.01,2013-01-28 22:51:00,
2013-01-28 17:56:00,49.3,36.4,29.21,SW,227,6.3,6.3,61,0.00,,BKN,0.00,VWS V13.01,2013-01-28 22:56:00,
2013-01-28 18:01:00,49.3,36.4,29.21,SW,227,6.3,6.3,61,0.00,,BKN,0.00,VWS V13.01,2013-01-28 23:01:00,
2013-01-28 18:06:00,49.5,36.6,29.21,SW,227,6.3,6.3,61,0.00,,BKN,0.00,VWS V13.01,2013-01-28 23:06:00,
2013-01-28 18:11:00,49.5,36.6,29.21,SW,227,6.3,6.3,61,0.00,,BKN,0.00,VWS V13.01,2013-01-28 23:11:00,
2013-01-28 18:16:00,49.8,36.5,29.21,SW,227,6.3,6.3,60,0.00,,BKN,0.00,VWS V13.01,2013-01-28 23:16:00,
2013-01-28 18:21:00,49.8,36.5,29.21,SW,227,6.3,6.3,60,0.00,,BKN,0.00,VWS V13.01,2013-01-28 23:21:00,
2013-01-28 18:26:00,49.6,35.9,29.21,SW,227,6.3,6.3,59,0.00,,BKN,0.00,VWS V13.01,2013-01-28 23:26:00,
2013-01-28 18:31:00,49.3,36.0,29.21,SW,227,6.3,6.3,60,0.00,,BKN,0.00,VWS V13.01,2013-01-28 23:31:00,
2013-01-28 18:36:00,49.1,36.2,29.21,SW,227,6.3,6.3,61,0.00,,BKN,0.00,VWS V13.01,2013-01-28 23:36:00,
2013-01-28 18:41:00,48.9,36.5,29.21,SW,227,6.3,6.3,62,0.00,,BKN,0.00,VWS V13.01,2013-01-28 23:41:00,
2013-01-28 18:46:00,48.9,36.9,29.21,SW,227,6.3,6.3,63,0.00,,BKN,0.00,VWS V13.01,2013-01-28 23:46:00,
2013-01-28 18:51:00,49.3,37.2,29.21,SW,227,6.3,6.3,63,0.00,,BKN,0.00,VWS V13.01,2013-01-28 23:51:00,
2013-01-28 18:56:00,49.3,36.8,29.21,SW,227,6.3,6.3,62,0.00,,BKN,0.00,VWS V13.01,2013-01-28 23:56:00,
2013-01-28 19:01:00,49.5,37.0,29.21,SW,227,6.3,6.3,62,0.00,,BKN,0.00,VWS V13.01,2013-01-29 00:01:00,
2013-01-28 19:06:00,49.8,37.3,29.21,SW,227,6.3,6.3,62,0.00,,BKN,0.00,VWS V13.01,2013-01-29 00:06:00,
2013-01-28 19:11:00,50.0,37.1,29.21,SW,227,6.3,6.3,61,0.00,,BKN,0.00,VWS V13.01,2013-01-29 00:11:00,
2013-01-28 19:16:00,50.0,36.7,29.21,SW,227,6.3,6.3,60,0.00,,BKN,0.00,VWS V13.01,2013-01-29 00:16:00,
2013-01-28 19:21:00,50.0,37.1,29.21,SW,227,6.3,6.3,61,0.00,,BKN,0.00,VWS V13.01,2013-01-29 00:21:00,
2013-01-28 19:26:00,50.2,37.3,29.21,SW,227,6.3,6.3,61,0.00,,BKN,0.00,VWS V13.01,2013-01-29 00:26:00,
2013-01-28 19:31:00,50.2,36.8,29.21,SW,227,6.3,6.3,60,0.00,,BKN,0.00,VWS V13.01,2013-01-29 00:31:00,
2013-01-28 19:36:00,50.2,36.8,29.21,SW,227,6.3,6.3,60,0.00,,BKN,0.00,VWS V13.01,2013-01-29 00:36:00,
2013-01-28 19:41:00,50.0,36.7,29.21,SW,227,6.3,6.3,60,0.00,,BKN,0.00,VWS V13.01,2013-01-29 00:41:00,
2013-01-28 19:46:00,50.2,36.8,29.21,SW,227,6.3,6.3,60,0.00,,BKN,0.00,VWS V13.01,2013-01-29 00:46:00,
2013-01-28 19:51:00,50.2,36.8,29.21,SW,227,6.3,6.3,60,0.00,,BKN,0.00,VWS V13.01,2013-01-29 00:51:00,
2013-01-28 19:56:00,50.2,36.8,29.21,SW,227,6.3,6.3,60,0.00,,BKN,0.00,VWS V13.01,2013-01-29 00:56:00,
2013-01-28 20:01:00,50.2,36.8,29.18,SW,227,6.3,6.3,60,0.00,,BKN,0.00,VWS V13.01,2013-01-29 01:01:00,
2013-01-28 20:06:00,50.2,36.8,29.18,SW,227,6.3,6.3,60,0.00,,BKN,0.00,VWS V13.01,2013-01-29 01:06:00,
2013-01-28 20:11:00,50.2,36.4,29.18,SW,227,6.3,6.3,59,0.00,,BKN,0.00,VWS V13.01,2013-01-29 01:11:00,
2013-01-28 20:16:00,50.4,36.6,29.18,SW,227,6.3,6.3,59,0.00,,BKN,0.00,VWS V13.01,2013-01-29 01:16:00,
2013-01-28 20:21:00,50.5,36.3,29.18,SW,227,6.3,6.3,58,0.00,,BKN,0.00,VWS V13.01,2013-01-29 01:21:00,
2013-01-28 20:26:00,50.5,36.3,29.18,SW,227,6.3,6.3,58,0.00,,BKN,0.00,VWS V13.01,2013-01-29 01:26:00,
2013-01-28 20:31:00,50.9,36.2,29.18,SW,227,6.3,6.3,57,0.00,,BKN,0.00,VWS V13.01,2013-01-29 01:31:00,
2013-01-28 20:36:00,51.1,36.0,29.18,SW,227,6.3,6.3,56,0.00,,BKN,0.00,VWS V13.01,2013-01-29 01:36:00,
2013-01-28 20:41:00,51.3,36.1,29.18,SW,227,6.3,6.3,56,0.00,,BKN,0.00,VWS V13.01,2013-01-29 01:41:00,
2013-01-28 20:46:00,51.4,35.8,29.18,SW,227,6.3,6.3,55,0.00,,BKN,0.00,VWS V13.01,2013-01-29 01:46:00,
2013-01-28 20:51:00,51.6,35.5,29.18,SW,227,6.3,6.3,54,0.00,,BKN,0.00,VWS V13.01,2013-01-29 01:51:00,
2013-01-28 20:56:00,51.6,35.5,29.18,SW,227,6.3,6.3,54,0.00,,BKN,0.00,VWS V13.01,2013-01-29 01:56:00,
2013-01-28 21:01:00,51.6,35.5,29.18,SW,227,6.3,6.3,54,0.00,,BKN,0.00,VWS V13.01,2013-01-29 02:01:00,
2013-01-28 21:06:00,51.6,35.5,29.18,SW,227,6.3,6.3,54,0.00,,BKN,0.00,VWS V13.01,2013-01-29 02:06:00,
2013-01-28 21:11:00,51.4,35.8,29.18,SW,227,6.3,6.3,55,0.00,,BKN,0.00,VWS V13.01,2013-01-29 02:11:00,
2013-01-28 21:16:00,51.4,35.8,29.18,SW,227,6.3,6.3,55,0.00,,BKN,0.00,VWS V13.01,2013-01-29 02:16:00,
2013-01-28 21:21:00,51.3,35.7,29.18,SW,227,6.3,6.3,55,0.00,,BKN,0.00,VWS V13.01,2013-01-29 02:21:00,
2013-01-28 21:26:00,51.3,35.7,29.18,SW,227,6.3,6.3,55,0.00,,BKN,0.00,VWS V13.01,2013-01-29 02:26:00,
2013-01-28 21:31:00,51.1,35.5,29.18,SW,227,6.3,6.3,55,0.00,,BKN,0.00,VWS V13.01,2013-01-29 02:31:00,
2013-01-28 21:36:00,51.1,35.5,29.18,SW,227,6.3,6.3,55,0.00,,BKN,0.00,VWS V13.01,2013-01-29 02:36:00,
2013-01-28 21:41:00,50.9,35.3,29.18,SW,227,6.3,6.3,55,0.00,,BKN,0.00,VWS V13.01,2013-01-29 02:41:00,
2013-01-28 21:45:00,50.7,35.6,29.21,SW,227,6.3,6.3,56,0.00,,BKN,0.00,VWS V13.01,2013-01-29 02:45:00,
2013-01-28 21:50:00,50.5,35.4,29.21,SW,227,6.3,6.3,56,0.00,,BKN,0.00,VWS V13.01,2013-01-29 02:50:00,
2013-01-28 21:55:00,50.5,35.9,29.21,SW,227,6.3,6.3,57,0.00,,BKN,0.00,VWS V13.01,2013-01-29 02:55:00,
2013-01-28 22:00:00,50.5,35.9,29.21,SW,227,6.3,6.3,57,0.00,,BKN,0.00,VWS V13.01,2013-01-29 03:00:00,
2013-01-28 22:05:00,50.7,36.1,29.18,SW,227,6.3,6.3,57,0.00,,BKN,0.00,VWS V13.01,2013-01-29 03:05:00,
2013-01-28 22:10:00,50.7,35.6,29.18,SW,227,6.3,6.3,56,0.00,,BKN,0.00,VWS V13.01,2013-01-29 03:10:00,
2013-01-28 22:15:00,50.7,35.6,29.21,SW,227,6.3,6.3,56,0.00,,BKN,0.00,VWS V13.01,2013-01-29 03:15:00,
2013-01-28 22:20:00,50.7,35.6,29.21,SW,227,6.3,6.3,56,0.00,,BKN,0.00,VWS V13.01,2013-01-29 03:20:00,
2013-01-28 22:25:00,50.9,35.8,29.21,SW,227,6.3,6.3,56,0.00,,BKN,0.00,VWS V13.01,2013-01-29 03:25:00,
2013-01-28 22:30:00,50.7,35.6,29.21,SW,227,6.3,6.3,56,0.00,,BKN,0.00,VWS V13.01,2013-01-29 03:30:00,
2013-01-28 22:35:00,50.5,35.9,29.18,SW,227,6.3,6.3,57,0.00,,BKN,0.00,VWS V13.01,2013-01-29 03:35:00,
2013-01-28 22:40:00,50.5,35.9,29.18,SW,227,6.3,6.3,57,0.00,,BKN,0.00,VWS V13.01,2013-01-29 03:40:00,
2013-01-28 22:45:00,50.7,36.1,29.18,SW,227,6.3,6.3,57,0.00,,BKN,0.00,VWS V13.01,2013-01-29 03:45:00,
2013-01-28 22:50:00,50.5,35.9,29.18,SW,227,6.3,6.3,57,0.00,,BKN,0.00,VWS V13.01,2013-01-29 03:50:00,
2013-01-28 22:55:00,50.5,35.9,29.18,SW,227,6.3,6.3,57,0.00,,BKN,0.00,VWS V13.01,2013-01-29 03:55:00,
2013-01-28 23:00:00,50.4,35.7,29.18,SW,227,6.3,6.3,57,0.00,,BKN,0.00,VWS V13.01,2013-01-29 04:00:00,
2013-01-28 23:05:00,50.4,35.7,29.21,SW,227,6.3,6.3,57,0.00,,BKN,0.00,VWS V13.01,2013-01-29 04:05:00,
2013-01-28 23:10:00,50.4,36.2,29.21,SW,227,6.3,6.3,58,0.00,,BKN,0.00,VWS V13.01,2013-01-29 04:10:00,
2013-01-28 23:15:00,50.2,36.0,29.21,SW,227,6.3,6.3,58,0.00,,BKN,0.00,VWS V13.01,2013-01-29 04:15:00,
2013-01-28 23:20:00,50.2,36.0,29.21,SW,227,6.3,6.3,58,0.00,,BKN,0.00,VWS V13.01,2013-01-29 04:20:00,
2013-01-28 23:25:00,50.2,36.0,29.21,SW,227,6.3,6.3,58,0.00,,BKN,0.00,VWS V13.01,2013-01-29 04:25:00,
2013-01-28 23:30:00,50.2,36.4,29.21,SW,227,6.3,6.3,59,0.00,,BKN,0.00,VWS V13.01,2013-01-29 04:30:00,
2013-01-28 23:35:00,50.2,36.4,29.21,SW,227,6.3,6.3,59,0.00,,BKN,0.00,VWS V13.01,2013-01-29 04:35:00,
2013-01-28 23:40:00,50.2,36.4,29.21,SW,227,6.3,6.3,59,0.00,,BKN,0.00,VWS V13.01,2013-01-29 04:40:00,
2013-01-28 23:45:00,50.2,36.4,29.21,SW,227,6.3,6.3,59,0.00,,BKN,0.00,VWS V13.01,2013-01-29 04:45:00,
2013-01-28 23:50:00,50.2,36.4,29.21,SW,227,6.3,6.3,59,0.00,,BKN,0.00,VWS V13.01,2013-01-29 04:50:00,
2013-01-28 23:55:00,50.2,36.4,29.21,SW,227,6.3,6.3,59,0.00,,BKN,0.00,VWS V13.01,2013-01-29 04:55:00,